Regional Weather Roundup
Issued by NWS

Home | Current Version | Previous Version | Graphics & Text | Print | Product List | Glossary On
Versions: 1 2 3 4 5 6 7 8 9 10 11 12 13 14 15 16 17 18 19 20 21 22 23 24 25 26 27 28 29 30 31 32 33 34 35 36 37 38 39 40 41 42 43 44 45 46 47 48 49 50
000
ASUS45 KPSR 031700
RWRAZ

ARIZONA HOURLY REGIONAL WEATHER ROUNDUP
NATIONAL WEATHER SERVICE PHOENIX AZ
1000 AM MST THU SEP 03 2015

NOTE: FAIR INDICATES FEW OR NO CLOUDS BELOW 12,000 FEET WITH NO
SIGNIFICANT WEATHER AND/OR OBSTRUCTIONS TO VISIBILITY.

AZZ001>003-036-031800-
NORTHWEST ARIZONA

CITY           SKY/WX    TMP DP  RH WIND       PRES   REMARKS
KINGMAN        SUNNY     87  37  17 SW13      30.00S
$$

AZZ004>008-015-016-018-031800-
NORTH CENTRAL ARIZONA

CITY           SKY/WX    TMP DP  RH WIND       PRES   REMARKS
GRAND CANYON   MOSUNNY   71  36  27 S16       30.23R
WILLIAMS       MOSUNNY   70  30  23 S12G22    30.29R
PRESCOTT       PTSUNNY   80  30  16 SW10      30.14S
FLAGSTAFF      NOT AVBL
PAYSON         SUNNY     77  54  44 VRB6      30.18S
PAGE           MOSUNNY   80  49  33 N6        30.05F
$$

AZZ009>014-017-031800-
NORTHEAST ARIZONA

CITY           SKY/WX    TMP DP  RH WIND       PRES   REMARKS
WINSLOW        NOT AVBL
SAINT JOHNS    SUNNY     73  53  49 N3        30.22S
WINDOW ROCK    MOSUNNY   75  45  34 NW13      30.27S
SHOW LOW       SUNNY     70  50  49 SW10      30.26S
$$

AZZ023-031800-
GREATER PHOENIX AREA

CITY           SKY/WX    TMP DP  RH WIND       PRES   REMARKS
PHOENIX        PTSUNNY   91  57  31 E7        29.88S
GLENDALE       MOSUNNY   93  50  22 CALM      29.90S
DEER VALLEY    MOSUNNY   90  54  29 SE9G16    29.90S
SCOTTSDALE     MOSUNNY   89  56  32 S5        29.92S
MESA-FALCON    PTSUNNY   91  54  27 SE12      29.90S
MESA-GATEWAY   PTSUNNY   90  57  33 SE12      29.93S
CHANDLER       PTSUNNY   90  57  33 SE9       29.90S
$$

AZZ027-028-031800-
SOUTHWEST MARICOPA COUNTY AND PINAL COUNTY

CITY           SKY/WX    TMP DP  RH WIND       PRES   REMARKS
CASA GRANDE    SUNNY     91  54  27 S7        29.91S
$$

AZZ503-504-507>509-031800-
SOUTHEAST ARIZONA

CITY           SKY/WX    TMP DP  RH WIND       PRES   REMARKS
TUCSON         MOSUNNY   84  61  45 SE6       30.02F
DAVIS-MONTHAN  MOSUNNY   84  61  46 E7        30.00F
RYAN FIELD     SUNNY     86  66  51 E9        30.00F
NOGALES        MOSUNNY   79  63  57 VRB3      30.09S
SAFFORD        PTSUNNY   79  58  48 SE8       30.06R
$$

AZZ020-021-025-026-031-031800-
SOUTHWEST ARIZONA

CITY           SKY/WX    TMP DP  RH WIND       PRES   REMARKS
YUMA           NOT AVBL
$$

CAZ031-033-041-043-047-048-061-031800-
SOUTHERN CALIFORNIA

CITY           SKY/WX    TMP DP  RH WIND       PRES   REMARKS
DOWNTOWN L.A.  CLOUDY    70  56  61 S3        29.94R
L.A. AIRPORT   PTSUNNY   70  56  61 S9        29.94S
SAN DIEGO      PTSUNNY   72  58  61 SW7       29.95S
BURBANK        CLOUDY    69  57  65 SE9       29.94S
ONTARIO        CLOUDY    66  58  75 VRB6      29.96R HAZE
RIVERSIDE      CLOUDY    66  58  75 CALM      29.96S
PALM SPRINGS   SUNNY     89  44  20 VRB5      29.83F
EL CENTRO NAS  SUNNY     91  56  30 SE8       29.80S
IMPERIAL       SUNNY     91  49  23 VRB6      29.78S
BLYTHE         SUNNY     92  56  29 S12       29.81S
$$

NVZ020-UTZ003-031800-
SOUTHERN NEVADA-UTAH

CITY           SKY/WX    TMP DP  RH WIND       PRES   REMARKS
LAS VEGAS      NOT AVBL
SALT LAKE CITY PTSUNNY   82  40  22 S25G35    29.91F
$$

NMZ009-TXZ055-031800-
NEW MEXICO-WEST TEXAS

CITY           SKY/WX    TMP DP  RH WIND       PRES   REMARKS
ALBUQUERQUE    MOSUNNY   74  49  41 W8        30.19S
EL PASO        CLOUDY    85  51  31 CALM      30.07F
$$


........................KEY........................
SKY/WX - SKY CONDITION/WEATHER
TMP    - TEMPERATURE IN FAHRENHEIT
DP     - DEW POINT IN FAHRENHEIT
RH     - RELATIVE HUMIDITY IN PERCENT
WIND   - DIRECTION AND SPEED IN MILES PER HOUR (MPH)
VRB    - VARIABLE WIND DIRECTION
PRES   - MEAN SEA LEVEL PRESSURE IN INCHES OF MERCURY
         F - FALLING PRESSURE   R - RISING PRESSURE
         S - STEADY PRESSURE
VSB    - VISIBILITY IN MILES
HX     - HEAT INDEX IN FAHRENHEIT
WCI    - WIND CHILL INDEX IN FAHRENHEIT
TC     - TEMPERATURE IN CELSIUS WHICH IS ALSO KNOWN AS
         TEMPERATURE IN CENTIGRADE
AFB    - AIR FORCE BASE
         LUKE AFB IS LUKE AIR FORCE BASE
         DAVIS-MONTHAN IS DAVIS-MONTHAN AIR FORCE BASE
NAS    - NAVAL AIR STATION
         EL CENTRO NAS IS EL CENTRO NAVAL AIR STATION
N/A    - NOT AVAILABLE




USA.gov is the U.S. government's official web portal to all federal, state and local government web resources and services.